Погода в Перхляе

Россия / Республика Мордовия     54°11′10″N   44°54′34″E
темп.,
°C
ветер,
м/с
пор.,
м/с
влажн.,
%
обл.,
%
осадки,
мм/ч
давл.,
гПа
погр.,
м
7 мая, пт
пт700:00+11ю51378100 0.0 1013312
03:00+10ю51478100 0.0 1012333
06:00+11ю51270100 0.0 1011332
09:00+13ю71367100 0.0 1011709
12:00+15ююз71359100 0.1 10111598
15:00+10з5889100 0.5 1013643
18:00+7сз4787100 0.3 1015455
21:00+6ссз1192100 0.3 101711
8 мая, сб
сб800:00+6ссв119138 0.0 101711
03:00+4ссз22900 0.0 101811
06:00+6всв23845 0.0 1017100
09:00+11в3461100 0.0 1017740
12:00+14вюв3457100 0.0 10151184
15:00+15ююв565497 0.0 10131387
18:00+14ююв4766100 0.0 1012391
21:00+11ююв3876100 0.0 1011147
9 мая, вс
вс900:00+12ю41369100 0.0 1010424
03:00+11ю41478100 0.2 1009478
06:00+12ююв61378100 0.4 1009467
09:00+14ю61076100 0.4 1009619
12:00+14ююв61183100 0.4 1010561
15:00+12ю3793100 1.9 1011627
18:00+8сз4492100 1.1 1014271
21:00+7ссз369390 1.1 1016252
10 мая, пн
пн1000:00+6ссз3795100 0.0 1017235
03:00+7ссз4994100 0.0 1019319
06:00+7с61194100 0.1 1020374
09:00+10ссв71084100 0.1 1022599
12:00+14ссв6872100 0.0 1023817
15:00+15ссв7970100 0.0 1023943
18:00+14св7107898 0.0 1024630
21:00+11ссв7138946 0.0 1025405
11 мая, вт
вт1100:00+9св613925 0.0 1026368
03:00+8св613948 0.0 1027356
06:00+9св5128943 0.0 1028374
09:00+13всв79746 0.0 1028605
12:00+18всв786579 0.0 1028888
15:00+19всв676287 0.0 10271076
18:00+18всв587057 0.0 1027592
21:00+13всв41182100 0.0 1027227